Date Time,Air Temp,Sky Temp,Clarity,Light Level,Rain Sensor,Readings
2013-11-28 00:00:40,14.8,0.8,14.0,32.5,2.3,0
2013-11-28 00:05:40,14.8,0.8,14.0,32.5,2.3,0
2013-11-28 00:10:40,14.8,0.8,14.0,32.5,2.3,0
2013-11-28 00:15:40,14.8,0.8,14.0,32.5,2.3,0
2013-11-28 00:20:40,14.8,0.8,14.0,32.5,2.3,0
2013-11-28 00:25:40,14.8,0.8,14.0,32.5,2.3,0
2013-11-28 00:30:40,14.8,0.8,14.0,32.5,2.3,0
2013-11-28 00:35:40,14.8,0.8,14.0,32.5,2.3,0
2013-11-28 00:40:40,14.8,0.8,14.0,32.5,2.3,0
2013-11-28 00:45:40,14.8,0.8,14.0,32.5,2.3,0
2013-11-28 00:50:40,14.8,0.8,14.0,32.5,2.3,0
2013-11-28 00:55:40,14.8,0.8,14.0,32.5,2.3,0
2013-11-28 01:00:40,14.8,0.8,14.0,32.5,2.3,0
2013-11-28 01:05:40,14.8,0.8,14.0,32.5,2.3,0
2013-11-28 01:10:40,14.8,0.8,14.0,32.5,2.3,0
2013-11-28 01:15:40,14.8,0.8,14.0,32.5,2.3,0
2013-11-28 01:20:40,14.8,0.8,14.0,32.5,2.3,0
2013-11-28 01:25:40,14.8,0.8,14.0,32.5,2.3,0
2013-11-28 01:30:40,14.8,0.8,14.0,32.5,2.3,0
2013-11-28 01:35:40,14.8,0.8,14.0,32.5,2.3,0
2013-11-28 01:40:40,14.8,0.8,14.0,32.5,2.3,0
2013-11-28 01:45:40,14.8,0.8,14.0,32.5,2.3,0
2013-11-28 01:50:40,14.8,0.8,14.0,32.5,2.3,0
2013-11-28 01:55:40,14.8,0.8,14.0,32.5,2.3,0
2013-11-28 02:00:40,14.8,0.8,14.0,32.5,2.3,0
2013-11-28 02:05:40,14.8,0.8,14.0,32.5,2.3,0
2013-11-28 02:10:40,14.8,0.8,14.0,32.5,2.3,0
2013-11-28 02:15:40,14.8,0.8,14.0,32.5,2.3,0
2013-11-28 02:20:40,14.8,0.8,14.0,32.5,2.3,0
2013-11-28 02:25:40,14.8,0.8,14.0,32.5,2.3,0
2013-11-28 02:30:40,14.8,0.8,14.0,32.5,2.3,0
2013-11-28 02:35:40,14.8,0.8,14.0,32.5,2.3,0
2013-11-28 02:40:40,14.8,0.8,14.0,32.5,2.3,0
2013-11-28 02:45:40,14.8,0.8,14.0,32.5,2.3,0
2013-11-28 02:50:40,14.8,0.8,14.0,32.5,2.3,0
2013-11-28 02:55:40,14.8,0.8,14.0,32.5,2.3,0
2013-11-28 03:00:40,14.8,0.8,14.0,32.5,2.3,0
2013-11-28 03:05:40,14.8,0.8,14.0,32.5,2.3,0
2013-11-28 03:10:40,14.8,0.8,14.0,32.5,2.3,0
2013-11-28 03:15:40,14.8,0.8,14.0,32.5,2.3,0
2013-11-28 03:20:40,14.8,0.8,14.0,32.5,2.3,0
2013-11-28 03:25:40,14.8,0.8,14.0,32.5,2.3,0
2013-11-28 03:30:40,14.8,0.8,14.0,32.5,2.3,0
2013-11-28 03:35:40,14.8,0.8,14.0,32.5,2.3,0
2013-11-28 03:40:40,14.8,0.8,14.0,32.5,2.3,0
2013-11-28 03:45:40,14.8,0.8,14.0,32.5,2.3,0
2013-11-28 03:50:40,14.8,0.8,14.0,32.5,2.3,0
2013-11-28 03:55:40,14.8,0.8,14.0,32.5,2.3,0
2013-11-28 04:00:40,14.8,0.8,14.0,32.5,2.3,0
2013-11-28 04:05:40,14.8,0.8,14.0,32.5,2.3,0
2013-11-28 04:10:40,14.8,0.8,14.0,32.5,2.3,0
2013-11-28 04:15:40,14.8,0.8,14.0,32.5,2.3,0
2013-11-28 04:20:40,14.8,0.8,14.0,32.5,2.3,0
2013-11-28 04:25:40,14.8,0.8,14.0,32.5,2.3,0
2013-11-28 04:30:40,14.8,0.8,14.0,32.5,2.3,0
2013-11-28 04:35:40,14.8,0.8,14.0,32.5,2.3,0
2013-11-28 04:40:40,14.8,0.8,14.0,32.5,2.3,0
2013-11-28 04:45:40,14.8,0.8,14.0,32.5,2.3,0
2013-11-28 04:50:40,14.8,0.8,14.0,32.5,2.3,0
2013-11-28 04:55:40,14.8,0.8,14.0,32.5,2.3,0
2013-11-28 05:00:40,14.8,0.8,14.0,32.5,2.3,0
2013-11-28 05:05:40,14.8,0.8,14.0,32.5,2.3,0
2013-11-28 05:10:40,14.8,0.8,14.0,32.5,2.3,0
2013-11-28 05:15:40,14.8,0.8,14.0,32.5,2.3,0
2013-11-28 05:20:40,14.8,0.8,14.0,32.5,2.3,0
2013-11-28 05:25:40,14.8,0.8,14.0,32.5,2.3,0
2013-11-28 05:30:40,14.8,0.8,14.0,32.5,2.3,0
2013-11-28 05:35:40,14.8,0.8,14.0,32.5,2.3,0
2013-11-28 05:40:40,14.8,0.8,14.0,32.5,2.3,0
2013-11-28 05:45:40,14.8,0.8,14.0,32.5,2.3,0
2013-11-28 05:50:40,14.8,0.8,14.0,32.5,2.3,0
2013-11-28 05:55:40,14.8,0.8,14.0,32.5,2.3,0
2013-11-28 06:00:40,14.8,0.8,14.0,32.5,2.3,0
2013-11-28 06:05:40,14.8,0.8,14.0,32.5,2.3,0
2013-11-28 06:10:40,14.8,0.8,14.0,32.5,2.3,0
2013-11-28 06:15:40,14.8,0.8,14.0,32.5,2.3,0
2013-11-28 06:20:40,14.8,0.8,14.0,32.5,2.3,0
2013-11-28 06:25:40,14.8,0.8,14.0,32.5,2.3,0
2013-11-28 06:30:40,14.8,0.8,14.0,32.5,2.3,0
2013-11-28 06:35:40,14.8,0.8,14.0,32.5,2.3,0
2013-11-28 06:40:40,14.8,0.8,14.0,32.5,2.3,0
2013-11-28 06:45:40,14.8,0.8,14.0,32.5,2.3,0
2013-11-28 06:50:40,14.8,0.8,14.0,32.5,2.3,0
2013-11-28 06:55:40,14.8,0.8,14.0,32.5,2.3,0
2013-11-28 07:00:40,14.8,0.8,14.0,32.5,2.3,0
2013-11-28 07:05:40,14.8,0.8,14.0,32.5,2.3,0
2013-11-28 07:10:40,14.8,0.8,14.0,32.5,2.3,0
2013-11-28 07:15:40,14.8,0.8,14.0,32.5,2.3,0
2013-11-28 07:20:40,14.8,0.8,14.0,32.5,2.3,0
2013-11-28 07:25:40,14.8,0.8,14.0,32.5,2.3,0
2013-11-28 07:30:40,14.8,0.8,14.0,32.5,2.3,0
2013-11-28 07:35:40,14.8,0.8,14.0,32.5,2.3,0
2013-11-28 07:40:40,14.8,0.8,14.0,32.5,2.3,0
2013-11-28 07:45:40,14.8,0.8,14.0,32.5,2.3,0
2013-11-28 07:50:40,14.8,0.8,14.0,32.5,2.3,0
2013-11-28 07:55:40,14.8,0.8,14.0,32.5,2.3,0
2013-11-28 08:00:40,14.8,0.8,14.0,32.5,2.3,0
2013-11-28 08:05:40,14.8,0.8,14.0,32.5,2.3,0
2013-11-28 08:10:40,14.8,0.8,14.0,32.5,2.3,0
2013-11-28 08:15:40,14.8,0.8,14.0,32.5,2.3,0
2013-11-28 08:20:40,14.8,0.8,14.0,32.5,2.3,0
2013-11-28 08:25:40,14.8,0.8,14.0,32.5,2.3,0
2013-11-28 08:30:40,14.8,0.8,14.0,32.5,2.3,0
2013-11-28 08:35:40,14.8,0.8,14.0,32.5,2.3,0
2013-11-28 08:40:40,14.8,0.8,14.0,32.5,2.3,0
2013-11-28 08:45:40,14.8,0.8,14.0,32.5,2.3,0
2013-11-28 08:50:40,14.8,0.8,14.0,32.5,2.3,0
2013-11-28 08:55:40,14.8,0.8,14.0,32.5,2.3,0
2013-11-28 09:00:40,14.8,0.8,14.0,32.5,2.3,0
2013-11-28 09:05:40,14.8,0.8,14.0,32.5,2.3,0
2013-11-28 09:10:40,14.8,0.8,14.0,32.5,2.3,0
2013-11-28 09:15:40,14.8,0.8,14.0,32.5,2.3,0
2013-11-28 09:20:40,14.8,0.8,14.0,32.5,2.3,0
2013-11-28 09:25:40,14.8,0.8,14.0,32.5,2.3,0
2013-11-28 09:30:40,14.8,0.8,14.0,32.5,2.3,0
2013-11-28 09:35:40,14.8,0.8,14.0,32.5,2.3,0
2013-11-28 09:40:40,14.8,0.8,14.0,32.5,2.3,0
2013-11-28 09:45:40,14.8,0.8,14.0,32.5,2.3,0
2013-11-28 09:50:40,14.8,0.8,14.0,32.5,2.3,0
2013-11-28 09:55:40,14.8,0.8,14.0,32.5,2.3,0
2013-11-28 10:00:40,14.8,0.8,14.0,32.5,2.3,0
2013-11-28 10:05:40,14.8,0.8,14.0,32.5,2.3,0
2013-11-28 10:10:40,14.8,0.8,14.0,32.5,2.3,0
2013-11-28 10:15:40,14.8,0.8,14.0,32.5,2.3,0
2013-11-28 10:20:41,14.8,0.8,14.0,32.5,2.3,0
2013-11-28 10:25:41,14.8,0.8,14.0,32.5,2.3,0
2013-11-28 10:30:41,14.8,0.8,14.0,32.5,2.3,0
2013-11-28 10:35:41,14.8,0.8,14.0,32.5,2.3,0
2013-11-28 10:40:41,14.8,0.8,14.0,32.5,2.3,0
2013-11-28 10:45:41,14.8,0.8,14.0,32.5,2.3,0
2013-11-28 10:50:41,14.8,0.8,14.0,32.5,2.3,0
2013-11-28 10:55:41,14.8,0.8,14.0,32.5,2.3,0
2013-11-28 11:00:41,14.8,0.8,14.0,32.5,2.3,0
2013-11-28 11:05:41,14.8,0.8,14.0,32.5,2.3,0
2013-11-28 11:10:41,14.8,0.8,14.0,32.5,2.3,0
2013-11-28 11:15:41,14.8,0.8,14.0,32.5,2.3,0
2013-11-28 11:20:41,14.8,0.8,14.0,32.5,2.3,0
2013-11-28 11:25:41,14.8,0.8,14.0,32.5,2.3,0
2013-11-28 11:30:41,14.8,0.8,14.0,32.5,2.3,0
2013-11-28 11:35:41,14.8,0.8,14.0,32.5,2.3,0
2013-11-28 11:40:41,14.8,0.8,14.0,32.5,2.3,0
2013-11-28 11:45:41,14.8,0.8,14.0,32.5,2.3,0
2013-11-28 11:50:41,14.8,0.8,14.0,32.5,2.3,0
2013-11-28 11:55:41,14.8,0.8,14.0,32.5,2.3,0
2013-11-28 12:00:41,14.8,0.8,14.0,32.5,2.3,0
2013-11-28 12:05:41,14.8,0.8,14.0,32.5,2.3,0
2013-11-28 12:10:41,14.8,0.8,14.0,32.5,2.3,0
2013-11-28 12:15:41,14.8,0.8,14.0,32.5,2.3,0
2013-11-28 12:20:41,14.8,0.8,14.0,32.5,2.3,0
2013-11-28 12:25:41,14.8,0.8,14.0,32.5,2.3,0
2013-11-28 12:30:41,14.8,0.8,14.0,32.5,2.3,0
2013-11-28 12:35:41,14.8,0.8,14.0,32.5,2.3,0
2013-11-28 12:40:41,14.8,0.8,14.0,32.5,2.3,0
2013-11-28 12:45:41,14.8,0.8,14.0,32.5,2.3,0
2013-11-28 12:50:41,14.8,0.8,14.0,32.5,2.3,0
2013-11-28 12:55:41,14.8,0.8,14.0,32.5,2.3,0
2013-11-28 13:00:41,14.8,0.8,14.0,32.5,2.3,0
2013-11-28 13:05:41,14.8,0.8,14.0,32.5,2.3,0
2013-11-28 13:10:41,14.8,0.8,14.0,32.5,2.3,0
2013-11-28 13:15:41,14.8,0.8,14.0,32.5,2.3,0
2013-11-28 13:20:41,14.8,0.8,14.0,32.5,2.3,0
2013-11-28 13:25:41,14.8,0.8,14.0,32.5,2.3,0
2013-11-28 13:30:41,14.8,0.8,14.0,32.5,2.3,0
2013-11-28 13:35:41,14.8,0.8,14.0,32.5,2.3,0
2013-11-28 13:40:41,14.8,0.8,14.0,32.5,2.3,0
2013-11-28 13:45:41,14.8,0.8,14.0,32.5,2.3,0
2013-11-28 13:50:41,14.8,0.8,14.0,32.5,2.3,0
2013-11-28 13:55:41,14.8,0.8,14.0,32.5,2.3,0
2013-11-28 14:00:41,14.8,0.8,14.0,32.5,2.3,0
2013-11-28 14:05:41,14.8,0.8,14.0,32.5,2.3,0
2013-11-28 14:10:41,14.8,0.8,14.0,32.5,2.3,0
2013-11-28 14:15:41,14.8,0.8,14.0,32.5,2.3,0
2013-11-28 14:20:41,14.8,0.8,14.0,32.5,2.3,0
2013-11-28 14:25:41,14.8,0.8,14.0,32.5,2.3,0
2013-11-28 14:30:41,14.8,0.8,14.0,32.5,2.3,0
2013-11-28 14:35:41,14.8,0.8,14.0,32.5,2.3,0
2013-11-28 14:40:41,14.8,0.8,14.0,32.5,2.3,0
2013-11-28 14:45:41,14.8,0.8,14.0,32.5,2.3,0
2013-11-28 14:50:41,14.8,0.8,14.0,32.5,2.3,0
2013-11-28 14:55:41,14.8,0.8,14.0,32.5,2.3,0
2013-11-28 15:00:41,14.8,0.8,14.0,32.5,2.3,0
2013-11-28 15:05:41,14.8,0.8,14.0,32.5,2.3,0
2013-11-28 15:10:41,14.8,0.8,14.0,32.5,2.3,0
2013-11-28 15:15:41,14.8,0.8,14.0,32.5,2.3,0
2013-11-28 15:20:41,14.8,0.8,14.0,32.5,2.3,0
2013-11-28 15:25:41,14.8,0.8,14.0,32.5,2.3,0
2013-11-28 15:30:41,14.8,0.8,14.0,32.5,2.3,0
2013-11-28 15:35:41,14.8,0.8,14.0,32.5,2.3,0
2013-11-28 15:40:41,14.8,0.8,14.0,32.5,2.3,0
2013-11-28 15:45:41,14.8,0.8,14.0,32.5,2.3,0
2013-11-28 15:50:41,14.8,0.8,14.0,32.5,2.3,0
2013-11-28 15:55:41,14.8,0.8,14.0,32.5,2.3,0
2013-11-28 16:00:41,14.8,0.8,14.0,32.5,2.3,0
2013-11-28 16:05:41,14.8,0.8,14.0,32.5,2.3,0
2013-11-28 16:10:41,14.8,0.8,14.0,32.5,2.3,0
2013-11-28 16:15:41,14.8,0.8,14.0,32.5,2.3,0
2013-11-28 16:20:41,14.8,0.8,14.0,32.5,2.3,0
2013-11-28 16:25:41,14.8,0.8,14.0,32.5,2.3,0
2013-11-28 16:30:41,14.8,0.8,14.0,32.5,2.3,0
2013-11-28 16:35:41,14.8,0.8,14.0,32.5,2.3,0
2013-11-28 16:40:41,14.8,0.8,14.0,32.5,2.3,0
2013-11-28 16:45:41,14.8,0.8,14.0,32.5,2.3,0
2013-11-28 16:50:41,14.8,0.8,14.0,32.5,2.3,0
2013-11-28 16:55:41,14.8,0.8,14.0,32.5,2.3,0
2013-11-28 17:00:41,14.8,0.8,14.0,32.5,2.3,0
2013-11-28 17:05:41,14.8,0.8,14.0,32.5,2.3,0
2013-11-28 17:10:41,14.8,0.8,14.0,32.5,2.3,0
2013-11-28 17:15:41,14.8,0.8,14.0,32.5,2.3,0
2013-11-28 17:20:41,14.8,0.8,14.0,32.5,2.3,0
2013-11-28 17:25:41,14.8,0.8,14.0,32.5,2.3,0
2013-11-28 17:30:41,14.8,0.8,14.0,32.5,2.3,0
2013-11-28 17:35:41,14.8,0.8,14.0,32.5,2.3,0
2013-11-28 17:40:41,14.8,0.8,14.0,32.5,2.3,0
2013-11-28 17:45:41,14.8,0.8,14.0,32.5,2.3,0
2013-11-28 17:50:41,14.8,0.8,14.0,32.5,2.3,0
2013-11-28 17:55:41,14.8,0.8,14.0,32.5,2.3,0
2013-11-28 18:00:41,14.8,0.8,14.0,32.5,2.3,0
2013-11-28 18:05:41,14.8,0.8,14.0,32.5,2.3,0
2013-11-28 18:10:41,14.8,0.8,14.0,32.5,2.3,0
2013-11-28 18:15:41,14.8,0.8,14.0,32.5,2.3,0
2013-11-28 18:20:41,14.8,0.8,14.0,32.5,2.3,0
2013-11-28 18:25:41,14.8,0.8,14.0,32.5,2.3,0
2013-11-28 18:30:41,14.8,0.8,14.0,32.5,2.3,0
2013-11-28 18:35:41,14.8,0.8,14.0,32.5,2.3,0
2013-11-28 18:40:41,14.8,0.8,14.0,32.5,2.3,0
2013-11-28 18:45:41,14.8,0.8,14.0,32.5,2.3,0
2013-11-28 18:55:02,16.0,5.2,10.8,0.1,2.3,109
2013-11-28 19:00:02,16.0,4.9,11.2,0.1,2.3,111
2013-11-28 19:05:02,16.0,4.9,11.1,0.1,2.3,112
2013-11-28 19:10:02,16.0,4.6,11.3,0.1,2.3,111
2013-11-28 19:15:02,15.9,4.6,11.4,0.1,2.3,112
2013-11-28 19:20:02,15.9,4.4,11.5,0.1,2.3,111
2013-11-28 19:25:02,15.9,4.5,11.4,0.1,2.3,112
2013-11-28 19:30:02,15.8,4.4,11.4,0.1,2.3,112
2013-11-28 19:35:02,15.8,4.6,11.2,0.1,2.3,111
2013-11-28 19:40:02,15.8,4.3,11.6,0.1,2.3,112
2013-11-28 19:45:02,15.8,4.3,11.5,0.1,2.3,112
2013-11-28 19:50:02,15.9,4.3,11.5,0.1,2.3,112
2013-11-28 19:55:02,15.9,4.3,11.6,0.1,2.3,112
2013-11-28 20:00:02,15.9,4.4,11.5,0.1,2.3,111
2013-11-28 20:05:02,15.9,4.3,11.6,0.1,2.3,112
2013-11-28 20:10:02,15.9,4.1,11.8,0.1,2.3,112
2013-11-28 20:15:02,15.9,4.2,11.7,0.1,2.3,112
2013-11-28 20:20:02,15.9,4.1,11.8,0.1,2.3,112
2013-11-28 20:25:02,15.9,4.1,11.9,0.1,2.3,111
2013-11-28 20:30:02,15.9,3.9,12.0,0.1,2.3,112
2013-11-28 20:35:02,15.9,4.0,12.0,0.1,2.3,112
2013-11-28 20:40:02,15.9,4.1,11.9,0.1,2.3,111
2013-11-28 20:45:02,15.9,4.0,11.9,0.1,2.3,112
2013-11-28 20:50:02,15.9,4.2,11.7,0.1,2.3,112
2013-11-28 20:55:02,16.0,4.2,11.8,0.1,2.3,112
2013-11-28 21:00:02,16.0,4.1,11.8,0.1,2.3,112
2013-11-28 21:05:02,16.0,4.2,11.8,0.1,2.3,111
2013-11-28 21:10:02,16.0,4.3,11.7,0.1,2.3,112
2013-11-28 21:15:02,16.0,4.2,11.8,0.1,2.3,112
2013-11-28 21:20:02,15.9,4.1,11.8,0.1,2.3,112
2013-11-28 21:25:02,16.0,4.2,11.7,0.1,2.3,112
2013-11-28 21:30:02,16.0,4.2,11.8,0.1,2.3,112
2013-11-28 21:35:02,16.0,4.0,12.0,0.1,2.3,111
2013-11-28 21:40:02,15.9,3.8,12.1,0.1,2.3,112
2013-11-28 21:45:02,15.9,3.7,12.2,0.1,2.3,111
2013-11-28 21:50:02,16.0,3.9,12.0,0.1,2.3,112
2013-11-28 21:55:02,16.0,3.9,12.1,0.1,2.3,111
2013-11-28 22:00:02,16.0,3.9,12.1,0.0,2.3,112
2013-11-28 22:05:02,16.0,4.0,12.1,0.0,2.3,111
2013-11-28 22:10:02,16.0,3.7,12.3,0.0,2.3,112
2013-11-28 22:15:02,16.0,3.6,12.3,0.0,2.3,111
2013-11-28 22:20:02,15.9,3.5,12.4,0.0,2.3,111
2013-11-28 22:25:02,15.9,3.2,12.7,0.0,2.3,111
2013-11-28 22:30:02,15.9,3.4,12.5,0.0,2.3,112
2013-11-28 22:35:02,15.9,3.5,12.4,0.0,2.3,111
2013-11-28 22:40:02,16.0,3.9,12.0,0.0,2.3,112
2013-11-28 22:45:02,16.0,4.0,12.0,0.0,2.3,112
2013-11-28 22:50:02,16.1,4.2,11.9,0.0,2.3,111
2013-11-28 22:55:02,16.1,3.9,12.2,0.0,2.3,112
2013-11-28 23:00:02,16.1,4.0,12.1,0.0,2.3,112
2013-11-28 23:05:02,16.0,4.0,12.0,0.0,2.3,112
2013-11-28 23:10:02,16.0,4.2,11.8,0.0,2.3,112
2013-11-28 23:15:02,16.1,4.1,12.0,0.0,2.3,112
2013-11-28 23:20:02,16.1,4.1,12.0,0.0,2.3,111
2013-11-28 23:25:02,16.1,4.4,11.8,0.0,2.3,112
2013-11-28 23:30:02,16.2,4.6,11.6,0.0,2.3,111
2013-11-28 23:35:02,16.3,4.6,11.7,0.0,2.3,112
2013-11-28 23:40:02,16.3,4.5,11.8,0.0,2.3,112
2013-11-28 23:45:02,16.3,5.0,11.3,0.0,2.3,111
2013-11-28 23:50:02,16.4,4.6,11.8,0.0,2.3,112
2013-11-28 23:55:02,16.4,4.4,12.0,0.0,2.3,112
